CZ-3B R/B (45345 NORAD) Tracking and Keplerian Element Data

This shows tracking and keplerian element data for the satellite.

Feedback or suggestion? Click here.




ElementValue
Catalog45345
NameCZ-3B R/B
Epoch Orbit56
Epoch Day93.08927511
Epoch Year2020
RAAN334.3125
Inclination28.4354
Eccentricity0.7213617
Argument of Perigee194.0243
Mean Anonmoly122.8663
Mean Motion2.39673022
Decay Rate0.00024296
L11 45345U 20017B 20093.08927511 .00024296 84750-6 16579-2 0 9991
L22 45345 28.4354 334.3125 7213617 194.0243 122.8663 2.39673022 563

Live tracking and technical data element details for CZ-3B R/B (NORAD 45345). CZ-3B R/B can be tracked NOW for your location showing map with azimuth and elevation plus other details from your city location.

Track the satellite on the map from your city or location and see movement details for azimuth, elevation, latitude, longitude, range, height, and movement on the map or in text.







IsCatalogInMostPopularTable: catalog: 45345, numindb: 24
Update: records affected: 1



GetName: 45345 CZ-3B R/B

Hit Count: updated at: Thu, 16 Jul 2020 04:49:27 GMT